Time,TemperatureF,DewpointF,PressureIn,WindDirection,WindDirectionDegrees,WindSpeedMPH,WindSpeedGustMPH,Humidity,HourlyPrecipIn,Conditions,Clouds,dailyrainin,SoftwareType,DateUTC
2013-03-03 00:01:00,54.0,40.0,29.97,NE,53,0.0,-999.0,59,-99.99,,,-99.99,,2013-03-03 08:01:00,
2013-03-03 00:11:00,54.0,40.0,29.97,NE,53,0.0,-999.0,59,-99.99,,,-99.99,,2013-03-03 08:11:00,
2013-03-03 00:21:00,54.0,42.0,29.98,NE,53,0.0,-999.0,64,-99.99,,,-99.99,,2013-03-03 08:21:00,
2013-03-03 00:31:00,55.0,45.0,29.95,NE,53,0.0,-999.0,68,-99.99,,,-99.99,,2013-03-03 08:31:00,
2013-03-03 00:53:00,55.0,44.0,29.94,NE,53,0.0,-999.0,67,-99.99,,,-99.99,,2013-03-03 08:53:00,
2013-03-03 01:01:00,55.0,43.0,29.95,ESE,111,0.0,-999.0,65,-99.99,,,-99.99,,2013-03-03 09:01:00,
2013-03-03 01:11:00,55.0,43.0,29.95,ESE,111,0.0,-999.0,65,-99.99,,,-99.99,,2013-03-03 09:11:00,
2013-03-03 01:21:00,56.0,46.0,29.97,ESE,111,0.0,-999.0,68,-99.99,,,-99.99,,2013-03-03 09:21:00,
2013-03-03 01:32:00,55.0,46.0,29.98,East,80,0.0,-999.0,72,-99.99,,,-99.99,,2013-03-03 09:32:00,
2013-03-03 01:51:00,55.0,45.0,29.94,NE,41,0.0,-999.0,68,-99.99,,,-99.99,,2013-03-03 09:51:00,
2013-03-03 02:01:00,56.0,46.0,29.92,NE,46,0.0,-999.0,70,-99.99,,,-99.99,,2013-03-03 10:01:00,
2013-03-03 02:21:00,55.0,44.0,29.92,NE,46,0.0,-999.0,66,-99.99,,,-99.99,,2013-03-03 10:21:00,
2013-03-03 02:31:00,55.0,42.0,29.92,ENE,57,0.0,-999.0,62,-99.99,,,-99.99,,2013-03-03 10:31:00,
2013-03-03 02:42:00,55.0,42.0,29.92,ENE,57,0.0,-999.0,62,-99.99,,,-99.99,,2013-03-03 10:42:00,
2013-03-03 02:51:00,55.0,41.0,29.91,ENE,63,0.0,-999.0,60,-99.99,,,-99.99,,2013-03-03 10:51:00,
2013-03-03 03:01:00,55.0,37.0,29.89,ENE,63,0.0,-999.0,51,-99.99,,,-99.99,,2013-03-03 11:01:00,
2013-03-03 03:11:00,55.0,37.0,29.89,ENE,63,0.0,-999.0,51,-99.99,,,-99.99,,2013-03-03 11:11:00,
2013-03-03 03:21:00,56.0,43.0,29.89,ENE,62,0.0,-999.0,61,-99.99,,,-99.99,,2013-03-03 11:21:00,
2013-03-03 03:31:00,56.0,41.0,29.89,ENE,62,0.0,-999.0,57,-99.99,,,-99.99,,2013-03-03 11:31:00,
2013-03-03 03:42:00,56.0,41.0,29.89,ENE,62,0.0,-999.0,57,-99.99,,,-99.99,,2013-03-03 11:42:00,
2013-03-03 03:52:00,55.0,38.0,29.90,ENE,62,0.0,-999.0,52,-99.99,,,-99.99,,2013-03-03 11:52:00,
2013-03-03 04:01:00,55.0,36.0,29.89,ENE,62,0.0,-999.0,48,-99.99,,,-99.99,,2013-03-03 12:01:00,
2013-03-03 04:11:00,55.0,36.0,29.89,ENE,62,0.0,-999.0,48,-99.99,,,-99.99,,2013-03-03 12:11:00,
2013-03-03 04:21:00,56.0,38.0,29.89,ENE,62,0.0,-999.0,50,-99.99,,,-99.99,,2013-03-03 12:21:00,
2013-03-03 04:32:00,56.0,38.0,29.90,ENE,62,0.0,-999.0,50,-99.99,,,-99.99,,2013-03-03 12:32:00,
2013-03-03 04:42:00,56.0,38.0,29.90,ENE,62,0.0,-999.0,50,-99.99,,,-99.99,,2013-03-03 12:42:00,
2013-03-03 04:52:00,56.0,38.0,29.90,ENE,62,0.0,-999.0,51,-99.99,,,-99.99,,2013-03-03 12:52:00,
2013-03-03 05:01:00,56.0,38.0,29.91,ENE,62,0.0,-999.0,51,-99.99,,,-99.99,,2013-03-03 13:01:00,
2013-03-03 05:11:00,56.0,38.0,29.91,ENE,62,0.0,-999.0,51,-99.99,,,-99.99,,2013-03-03 13:11:00,
2013-03-03 05:21:00,56.0,40.0,29.90,ENE,62,0.0,-999.0,54,-99.99,,,-99.99,,2013-03-03 13:21:00,
2013-03-03 05:31:00,56.0,40.0,29.91,ENE,62,0.0,-999.0,54,-99.99,,,-99.99,,2013-03-03 13:31:00,
2013-03-03 05:41:00,56.0,40.0,29.91,ENE,62,0.0,-999.0,54,-99.99,,,-99.99,,2013-03-03 13:41:00,
2013-03-03 05:51:00,55.0,39.0,29.91,ENE,62,0.0,-999.0,55,-99.99,,,-99.99,,2013-03-03 13:51:00,
2013-03-03 06:01:00,54.0,38.0,29.91,ENE,62,0.0,-999.0,54,-99.99,,,-99.99,,2013-03-03 14:01:00,
2013-03-03 06:11:00,54.0,38.0,29.91,ENE,62,0.0,-999.0,54,-99.99,,,-99.99,,2013-03-03 14:11:00,
2013-03-03 06:21:00,54.0,36.0,29.91,ENE,62,0.0,-999.0,50,-99.99,,,-99.99,,2013-03-03 14:21:00,
2013-03-03 06:31:00,54.0,36.0,29.93,ENE,62,0.0,-999.0,50,-99.99,,,-99.99,,2013-03-03 14:31:00,
2013-03-03 06:42:00,54.0,36.0,29.93,ENE,62,0.0,-999.0,50,-99.99,,,-99.99,,2013-03-03 14:42:00,
2013-03-03 06:52:00,54.0,36.0,29.93,ENE,62,0.0,-999.0,50,-99.99,,,-99.99,,2013-03-03 14:52:00,
2013-03-03 07:01:00,54.0,40.0,29.93,ENE,62,0.0,-999.0,58,-99.99,,,-99.99,,2013-03-03 15:01:00,
2013-03-03 07:11:00,54.0,40.0,29.93,ENE,62,0.0,-999.0,58,-99.99,,,-99.99,,2013-03-03 15:11:00,
2013-03-03 07:22:00,54.0,40.0,29.92,ENE,62,0.0,-999.0,58,-99.99,,,-99.99,,2013-03-03 15:22:00,
2013-03-03 07:31:00,54.0,38.0,29.92,ENE,62,0.0,-999.0,55,-99.99,,,-99.99,,2013-03-03 15:31:00,
2013-03-03 07:42:00,54.0,38.0,29.92,ENE,62,0.0,-999.0,55,-99.99,,,-99.99,,2013-03-03 15:42:00,
2013-03-03 07:51:00,54.0,39.0,29.92,ENE,62,0.0,-999.0,56,-99.99,,,-99.99,,2013-03-03 15:51:00,
2013-03-03 08:01:00,55.0,41.0,29.92,ENE,62,0.0,-999.0,59,-99.99,,,-99.99,,2013-03-03 16:01:00,
2013-03-03 08:12:00,55.0,41.0,29.92,ENE,62,0.0,-999.0,59,-99.99,,,-99.99,,2013-03-03 16:12:00,
2013-03-03 08:21:00,55.0,42.0,29.93,ENE,62,0.0,-999.0,62,-99.99,,,-99.99,,2013-03-03 16:21:00,
2013-03-03 08:31:00,56.0,43.0,29.93,ENE,62,0.0,-999.0,62,-99.99,,,-99.99,,2013-03-03 16:31:00,
2013-03-03 08:42:00,56.0,43.0,29.93,ENE,62,0.0,-999.0,62,-99.99,,,-99.99,,2013-03-03 16:42:00,
2013-03-03 08:51:00,56.0,43.0,29.93,ENE,62,0.0,-999.0,62,-99.99,,,-99.99,,2013-03-03 16:51:00,
2013-03-03 09:01:00,57.0,45.0,29.93,ENE,62,0.0,-999.0,64,-99.99,,,-99.99,,2013-03-03 17:01:00,
2013-03-03 09:11:00,57.0,45.0,29.93,ENE,62,0.0,-999.0,63,-99.99,,,-99.99,,2013-03-03 17:11:00,
2013-03-03 09:21:00,57.0,45.0,29.93,ENE,62,0.0,-999.0,63,-99.99,,,-99.99,,2013-03-03 17:21:00,
2013-03-03 09:32:00,58.0,45.0,29.93,ENE,62,0.0,-999.0,62,-99.99,,,-99.99,,2013-03-03 17:32:00,
2013-03-03 09:42:00,58.0,45.0,29.93,ENE,62,0.0,-999.0,62,-99.99,,,-99.99,,2013-03-03 17:42:00,
2013-03-03 09:52:00,58.0,45.0,29.93,ENE,63,0.0,-999.0,63,-99.99,,,-99.99,,2013-03-03 17:52:00,
2013-03-03 10:01:00,59.0,43.0,29.93,ENE,63,0.0,-999.0,56,-99.99,,,-99.99,,2013-03-03 18:01:00,
2013-03-03 10:11:00,59.0,43.0,29.93,ENE,63,0.0,-999.0,56,-99.99,,,-99.99,,2013-03-03 18:11:00,
2013-03-03 10:21:00,60.0,44.0,29.93,ENE,70,0.0,-999.0,56,-99.99,,,-99.99,,2013-03-03 18:21:00,
2013-03-03 10:31:00,62.0,44.0,29.92,ENE,70,0.0,-999.0,52,-99.99,,,-99.99,,2013-03-03 18:31:00,
2013-03-03 10:41:00,62.0,44.0,29.92,ENE,70,0.0,-999.0,52,-99.99,,,-99.99,,2013-03-03 18:41:00,
2013-03-03 10:52:00,65.0,43.0,29.92,East,88,0.0,-999.0,44,-99.99,,,-99.99,,2013-03-03 18:52:00,
2013-03-03 11:01:00,66.0,41.0,29.91,ENE,77,0.0,-999.0,40,-99.99,,,-99.99,,2013-03-03 19:01:00,
2013-03-03 11:11:00,66.0,41.0,29.91,ENE,77,0.0,-999.0,40,-99.99,,,-99.99,,2013-03-03 19:11:00,
2013-03-03 11:21:00,67.0,41.0,29.90,East,79,0.0,-999.0,38,-99.99,,,-99.99,,2013-03-03 19:21:00,
2013-03-03 11:31:00,69.0,41.0,29.90,ENE,59,0.0,-999.0,36,-99.99,,,-99.99,,2013-03-03 19:31:00,
2013-03-03 11:42:00,69.0,41.0,29.90,ENE,59,0.0,-999.0,36,-99.99,,,-99.99,,2013-03-03 19:42:00,
2013-03-03 11:51:00,69.0,40.0,29.89,ESE,115,0.0,-999.0,35,-99.99,,,-99.99,,2013-03-03 19:51:00,
2013-03-03 12:01:00,69.0,43.0,29.88,East,92,0.0,-999.0,39,-99.99,,,-99.99,,2013-03-03 20:01:00,
2013-03-03 12:11:00,69.0,43.0,29.88,East,92,0.0,-999.0,39,-99.99,,,-99.99,,2013-03-03 20:11:00,
2013-03-03 12:21:00,70.0,44.0,29.87,ENE,65,1.0,-999.0,39,-99.99,,,-99.99,,2013-03-03 20:21:00,
2013-03-03 12:32:00,71.0,44.0,29.87,East,90,1.0,-999.0,38,-99.99,,,-99.99,,2013-03-03 20:32:00,
2013-03-03 12:42:00,71.0,44.0,29.87,East,90,1.0,-999.0,38,-99.99,,,-99.99,,2013-03-03 20:42:00,
2013-03-03 12:52:00,72.0,45.0,29.86,NNE,32,1.0,-999.0,38,-99.99,,,-99.99,,2013-03-03 20:52:00,
2013-03-03 13:01:00,72.0,44.0,29.85,ENE,59,1.0,-999.0,36,-99.99,,,-99.99,,2013-03-03 21:01:00,
2013-03-03 13:11:00,72.0,44.0,29.85,ENE,59,1.0,-999.0,36,-99.99,,,-99.99,,2013-03-03 21:11:00,
2013-03-03 13:21:00,72.0,43.0,29.85,East,92,1.0,-999.0,35,-99.99,,,-99.99,,2013-03-03 21:21:00,
2013-03-03 13:31:00,72.0,44.0,29.84,East,90,1.0,-999.0,36,-99.99,,,-99.99,,2013-03-03 21:31:00,
2013-03-03 13:41:00,72.0,44.0,29.84,East,90,1.0,-999.0,36,-99.99,,,-99.99,,2013-03-03 21:41:00,
2013-03-03 13:52:00,71.0,44.0,29.84,ESE,105,0.0,-999.0,38,-99.99,,,-99.99,,2013-03-03 21:52:00,
2013-03-03 14:01:00,70.0,45.0,29.84,ENE,65,1.0,-999.0,40,-99.99,,,-99.99,,2013-03-03 22:01:00,
2013-03-03 14:11:00,70.0,45.0,29.84,ENE,65,1.0,-999.0,40,-99.99,,,-99.99,,2013-03-03 22:11:00,
2013-03-03 14:21:00,70.0,44.0,29.84,ENE,63,1.0,-999.0,39,-99.99,,,-99.99,,2013-03-03 22:21:00,
2013-03-03 14:31:00,71.0,45.0,29.83,ESE,107,2.0,-999.0,40,-99.99,,,-99.99,,2013-03-03 22:31:00,
2013-03-03 14:42:00,71.0,45.0,29.83,ESE,107,2.0,-999.0,40,-99.99,,,-99.99,,2013-03-03 22:42:00,
2013-03-03 14:52:00,70.0,45.0,29.83,NE,34,1.0,-999.0,41,-99.99,,,-99.99,,2013-03-03 22:52:00,
2013-03-03 15:01:00,70.0,45.0,29.83,ENE,61,2.0,-999.0,41,-99.99,,,-99.99,,2013-03-03 23:01:00,
2013-03-03 15:11:00,70.0,45.0,29.83,ENE,61,2.0,-999.0,41,-99.99,,,-99.99,,2013-03-03 23:11:00,
2013-03-03 15:21:00,69.0,46.0,29.83,East,79,2.0,-999.0,43,-99.99,,,-99.99,,2013-03-03 23:21:00,
2013-03-03 15:31:00,68.0,47.0,29.83,ENE,60,1.0,-999.0,47,-99.99,,,-99.99,,2013-03-03 23:31:00,
2013-03-03 15:41:00,68.0,47.0,29.83,ENE,60,1.0,-999.0,47,-99.99,,,-99.99,,2013-03-03 23:41:00,
2013-03-03 15:52:00,68.0,49.0,29.83,SE,128,2.0,-999.0,50,-99.99,,,-99.99,,2013-03-03 23:52:00,
2013-03-03 16:01:00,67.0,49.0,29.83,SE,142,2.0,-999.0,52,-99.99,,,-99.99,,2013-03-04 00:01:00,
2013-03-03 16:11:00,67.0,49.0,29.83,SE,142,2.0,-999.0,52,-99.99,,,-99.99,,2013-03-04 00:11:00,
2013-03-03 16:21:00,66.0,48.0,29.83,East,92,1.0,-999.0,53,-99.99,,,-99.99,,2013-03-04 00:21:00,
2013-03-03 16:32:00,65.0,48.0,29.83,ESE,111,1.0,-999.0,55,-99.99,,,-99.99,,2013-03-04 00:32:00,
2013-03-03 16:41:00,65.0,48.0,29.83,ESE,111,1.0,-999.0,55,-99.99,,,-99.99,,2013-03-04 00:41:00,
2013-03-03 16:51:00,65.0,49.0,29.83,East,98,0.0,-999.0,56,-99.99,,,-99.99,,2013-03-04 00:51:00,
2013-03-03 17:01:00,65.0,49.0,29.83,ESE,104,1.0,-999.0,57,-99.99,,,-99.99,,2013-03-04 01:01:00,
2013-03-03 17:11:00,65.0,49.0,29.83,ESE,104,1.0,-999.0,57,-99.99,,,-99.99,,2013-03-04 01:11:00,
2013-03-03 17:21:00,64.0,49.0,29.83,ESE,114,1.0,-999.0,58,-99.99,,,-99.99,,2013-03-04 01:21:00,
2013-03-03 17:31:00,63.0,49.0,29.83,East,98,0.0,-999.0,61,-99.99,,,-99.99,,2013-03-04 01:31:00,
2013-03-03 17:42:00,63.0,49.0,29.83,East,98,0.0,-999.0,61,-99.99,,,-99.99,,2013-03-04 01:42:00,
2013-03-03 17:51:00,62.0,49.0,29.83,ESE,105,0.0,-999.0,63,-99.99,,,-99.99,,2013-03-04 01:51:00,
2013-03-03 18:01:00,61.0,50.0,29.84,ESE,102,0.0,-999.0,66,-99.99,,,-99.99,,2013-03-04 02:01:00,
2013-03-03 18:11:00,61.0,50.0,29.84,ESE,102,0.0,-999.0,66,-99.99,,,-99.99,,2013-03-04 02:11:00,
2013-03-03 18:22:00,59.0,50.0,29.84,East,93,0.0,-999.0,71,-99.99,,,-99.99,,2013-03-04 02:22:00,
2013-03-03 18:31:00,58.0,50.0,29.85,ESE,111,0.0,-999.0,75,-99.99,,,-99.99,,2013-03-04 02:31:00,
2013-03-03 18:41:00,58.0,50.0,29.85,ESE,111,0.0,-999.0,75,-99.99,,,-99.99,,2013-03-04 02:41:00,
2013-03-03 18:52:00,57.0,50.0,29.84,ESE,119,0.0,-999.0,77,-99.99,,,-99.99,,2013-03-04 02:52:00,
2013-03-03 19:01:00,56.0,49.0,29.85,ESE,119,0.0,-999.0,78,-99.99,,,-99.99,,2013-03-04 03:01:00,
2013-03-03 19:11:00,56.0,49.0,29.85,ESE,119,0.0,-999.0,78,-99.99,,,-99.99,,2013-03-04 03:11:00,
2013-03-03 19:21:00,56.0,50.0,29.85,ESE,119,0.0,-999.0,79,-99.99,,,-99.99,,2013-03-04 03:21:00,
2013-03-03 19:31:00,56.0,50.0,29.86,ESE,119,0.0,-999.0,79,-99.99,,,-99.99,,2013-03-04 03:31:00,
2013-03-03 19:42:00,55.0,49.0,29.86,ESE,119,0.0,-999.0,80,-99.99,,,-99.99,,2013-03-04 03:42:00,
2013-03-03 19:52:00,55.0,49.0,29.86,ESE,119,0.0,-999.0,80,-99.99,,,-99.99,,2013-03-04 03:52:00,
2013-03-03 20:01:00,55.0,49.0,29.86,ESE,119,0.0,-999.0,80,-99.99,,,-99.99,,2013-03-04 04:01:00,
2013-03-03 20:11:00,55.0,49.0,29.86,ESE,119,0.0,-999.0,80,-99.99,,,-99.99,,2013-03-04 04:11:00,
2013-03-03 20:21:00,54.0,48.0,29.87,ESE,119,0.0,-999.0,79,-99.99,,,-99.99,,2013-03-04 04:21:00,
2013-03-03 20:31:00,54.0,48.0,29.87,ESE,119,0.0,-999.0,79,-99.99,,,-99.99,,2013-03-04 04:31:00,
2013-03-03 20:42:00,54.0,48.0,29.87,ESE,119,0.0,-999.0,79,-99.99,,,-99.99,,2013-03-04 04:42:00,
2013-03-03 20:51:00,53.0,47.0,29.87,ESE,119,0.0,-999.0,80,-99.99,,,-99.99,,2013-03-04 04:51:00,
2013-03-03 21:01:00,52.0,47.0,29.87,ESE,119,0.0,-999.0,82,-99.99,,,-99.99,,2013-03-04 05:01:00,
2013-03-03 21:11:00,52.0,47.0,29.87,ESE,119,0.0,-999.0,82,-99.99,,,-99.99,,2013-03-04 05:11:00,
2013-03-03 21:22:00,51.0,46.0,29.87,ESE,119,0.0,-999.0,82,-99.99,,,-99.99,,2013-03-04 05:22:00,
2013-03-03 21:31:00,51.0,46.0,29.87,ESE,119,0.0,-999.0,82,-99.99,,,-99.99,,2013-03-04 05:31:00,
2013-03-03 21:42:00,51.0,46.0,29.87,ESE,119,0.0,-999.0,82,-99.99,,,-99.99,,2013-03-04 05:42:00,
2013-03-03 21:52:00,51.0,46.0,29.87,ESE,119,0.0,-999.0,83,-99.99,,,-99.99,,2013-03-04 05:52:00,
2013-03-03 22:01:00,51.0,46.0,29.87,ESE,119,0.0,-999.0,83,-99.99,,,-99.99,,2013-03-04 06:01:00,
2013-03-03 22:11:00,51.0,46.0,29.87,ESE,119,0.0,-999.0,83,-99.99,,,-99.99,,2013-03-04 06:11:00,
2013-03-03 22:21:00,51.0,46.0,29.87,ESE,119,0.0,-999.0,83,-99.99,,,-99.99,,2013-03-04 06:21:00,
2013-03-03 22:31:00,50.0,45.0,29.87,ESE,119,0.0,-999.0,83,-99.99,,,-99.99,,2013-03-04 06:31:00,
2013-03-03 22:42:00,50.0,45.0,29.87,ESE,119,0.0,-999.0,83,-99.99,,,-99.99,,2013-03-04 06:42:00,
2013-03-03 22:51:00,50.0,45.0,29.87,ESE,119,0.0,-999.0,82,-99.99,,,-99.99,,2013-03-04 06:51:00,
2013-03-03 23:01:00,49.0,44.0,29.87,ESE,119,0.0,-999.0,83,-99.99,,,-99.99,,2013-03-04 07:01:00,
2013-03-03 23:11:00,49.0,44.0,29.87,ESE,119,0.0,-999.0,83,-99.99,,,-99.99,,2013-03-04 07:11:00,
2013-03-03 23:21:00,49.0,44.0,29.87,ESE,119,0.0,-999.0,83,-99.99,,,-99.99,,2013-03-04 07:21:00,
2013-03-03 23:32:00,49.0,44.0,29.86,ESE,119,0.0,-999.0,84,-99.99,,,-99.99,,2013-03-04 07:32:00,
2013-03-03 23:41:00,49.0,44.0,29.86,ESE,119,0.0,-999.0,84,-99.99,,,-99.99,,2013-03-04 07:41:00,
2013-03-03 23:51:00,48.0,44.0,29.86,ESE,119,0.0,-999.0,85,-99.99,,,-99.99,,2013-03-04 07:51:00,